Location: Mat�lon
(46.2791°N, 7.1028°E)
Time: 02:03:33
(UTC+00:00)

USA 238 - Pass Details

Date: 18 September 2020
Orbit: 1006 x 1206 km, 63.4° (Epoch: 28 October)

Event Time Altitude Azimuth Distance (km) Brightness Sun altitude
Rises 19:32:30 0° 320° (NW) 3,941 7.8 -20.2°
Reaches altitude 10° 19:35:08 10° 321° (NW) 3,008 7.0 -20.6°
Maximum altitude 19:42:23 85° 51° (NE) 1,173 3.8 -21.7°
Enters shadow 19:45:45 37° 138° (SE) 1,755 4.3 -22.3°
